�������l�o���
Date,Time,MP-1(��Sv/h),MP-2(��Sv/h),MP-3(��Sv/h),MP-4(��Sv/h),MP-5(��Sv/h),MP-6(��Sv/h),MP-7(��Sv/h),MP-8(��Sv/h),����,����(m/s),���J
2024/01/19,00:00,0.521,0.788,0.494,1.003,0.713,0.317,0.566,0.527,�k�k��,7.1,��
2024/01/19,00:10,0.522,0.788,0.493,1.003,0.713,0.315,0.568,0.527,�k�k��,6.9,��
2024/01/19,00:20,0.521,0.789,0.494,1.004,0.712,0.317,0.567,0.527,�k�k��,7.0,��
2024/01/19,00:30,0.522,0.790,0.494,1.003,0.713,0.319,0.566,0.527,�k�k��,6.5,��
2024/01/19,00:40,0.521,0.789,0.494,1.002,0.714,0.317,0.565,0.529,�k�k��,7.3,��
2024/01/19,00:50,0.520,0.786,0.493,1.003,0.713,0.316,0.567,0.528,�k�k��,6.9,�L
2024/01/19,01:00,0.521,0.788,0.494,1.003,0.713,0.317,0.564,0.527,�k�k��,7.3,�L
2024/01/19,01:10,0.520,0.787,0.493,1.004,0.712,0.317,0.564,0.528,�k�k��,6.4,�L
2024/01/19,01:20,0.520,0.787,0.494,1.002,0.713,0.316,0.566,0.528,�k�k��,5.5,��
2024/01/19,01:30,0.522,0.787,0.493,1.002,0.713,0.316,0.566,0.527,�k��,6.2,��
2024/01/19,01:40,0.521,0.788,0.492,1.002,0.713,0.317,0.564,0.527,�k�k��,5.5,��
2024/01/19,01:50,0.520,0.789,0.492,1.003,0.711,0.317,0.568,0.528,�k�k��,5.8,��
2024/01/19,02:00,0.521,0.789,0.492,1.002,0.712,0.315,0.568,0.529,�k�k��,5.6,��
2024/01/19,02:10,0.523,0.788,0.492,1.003,0.712,0.316,0.565,0.528,�k�k��,5.6,��
2024/01/19,02:20,0.522,0.788,0.493,1.003,0.711,0.317,0.566,0.527,�k�k��,5.3,��
2024/01/19,02:30,0.521,0.787,0.493,1.003,0.712,0.315,0.568,0.527,�k,5.7,��
2024/01/19,02:40,0.521,0.787,0.494,1.004,0.713,0.316,0.567,0.528,�k�k��,6.3,��
2024/01/19,02:50,0.520,0.789,0.493,1.004,0.713,0.316,0.566,0.528,�k�k��,5.6,��
2024/01/19,03:00,0.521,0.789,0.493,1.004,0.711,0.316,0.565,0.527,�k�k��,6.4,��
2024/01/19,03:10,0.522,0.790,0.490,1.003,0.713,0.317,0.566,0.527,�k�k��,6.2,��
2024/01/19,03:20,0.521,0.789,0.494,1.002,0.712,0.317,0.566,0.528,�k�k��,6.3,��
2024/01/19,03:30,0.521,0.790,0.493,1.004,0.714,0.316,0.565,0.527,�k,5.8,��
2024/01/19,03:40,0.520,0.789,0.492,1.004,0.714,0.315,0.567,0.528,�k,6.7,��
2024/01/19,03:50,0.521,0.789,0.493,1.002,0.713,0.316,0.566,0.527,�k,6.8,��
2024/01/19,04:00,0.521,0.789,0.492,1.003,0.713,0.316,0.566,0.528,�k,6.8,��
2024/01/19,04:10,0.519,0.788,0.492,1.003,0.711,0.316,0.566,0.528,�k�k��,5.6,��
2024/01/19,04:20,0.521,0.788,0.493,1.005,0.713,0.316,0.565,0.527,�k,6.7,��
2024/01/19,04:30,0.523,0.788,0.492,1.004,0.713,0.316,0.566,0.526,�k,7.9,��
2024/01/19,04:40,0.521,0.790,0.492,1.004,0.713,0.318,0.565,0.528,�k,7.6,��
2024/01/19,04:50,0.519,0.789,0.494,1.003,0.713,0.317,0.566,0.527,�k,7.0,��
2024/01/19,05:00,0.521,0.789,0.493,1.005,0.713,0.317,0.565,0.528,�k,7.7,��
2024/01/19,05:10,0.521,0.789,0.492,1.003,0.713,0.316,0.565,0.526,�k,7.6,��
2024/01/19,05:20,0.523,0.789,0.492,1.004,0.712,0.317,0.566,0.528,�k,8.6,��
2024/01/19,05:30,0.522,0.789,0.492,1.002,0.714,0.317,0.567,0.527,�k,7.3,��
2024/01/19,05:40,0.520,0.788,0.493,1.002,0.713,0.316,0.564,0.528,�k,6.7,��
2024/01/19,05:50,0.523,0.788,0.491,1.001,0.712,0.316,0.568,0.527,�k,7.5,��
2024/01/19,06:00,0.521,0.787,0.492,1.004,0.713,0.316,0.568,0.529,�k,7.7,��
2024/01/19,06:10,0.523,0.789,0.491,1.002,0.712,0.316,0.567,0.528,�k�k��,8.7,��
2024/01/19,06:20,0.519,0.786,0.493,1.003,0.713,0.315,0.567,0.527,�k�k��,8.8,��
2024/01/19,06:30,0.521,0.787,0.490,1.001,0.713,0.316,0.567,0.529,�k�k��,8.9,��
2024/01/19,06:40,0.520,0.790,0.491,1.003,0.712,0.315,0.568,0.526,�k�k��,9.3,��
2024/01/19,06:50,0.519,0.788,0.490,1.004,0.712,0.314,0.567,0.527,�k�k��,9.0,��
2024/01/19,07:00,0.520,0.788,0.492,1.002,0.710,0.315,0.566,0.528,�k�k��,8.4,��
2024/01/19,07:10,0.520,0.788,0.492,1.001,0.713,0.315,0.568,0.528,�k��,9.7,��
2024/01/19,07:20,0.521,0.788,0.493,1.003,0.713,0.314,0.566,0.526,�k�k��,9.4,��
2024/01/19,07:30,0.521,0.788,0.492,1.002,0.711,0.316,0.566,0.528,�k�k��,7.9,��
2024/01/19,07:40,0.520,0.787,0.490,1.004,0.712,0.316,0.566,0.527,�k��,7.9,��
2024/01/19,07:50,0.520,0.790,0.491,1.003,0.711,0.315,0.567,0.528,�k�k��,7.2,��
2024/01/19,08:00,0.519,0.789,0.491,1.004,0.714,0.314,0.567,0.526,�k,5.6,��
2024/01/19,08:10,0.520,0.787,0.491,1.001,0.712,0.314,0.567,0.526,�k,6.0,��
2024/01/19,08:20,0.520,0.787,0.492,1.003,0.713,0.315,0.568,0.527,�k,4.4,��
2024/01/19,08:30,0.520,0.787,0.491,1.003,0.712,0.315,0.566,0.526,�k,4.5,��
2024/01/19,08:40,0.521,0.788,0.491,1.002,0.710,0.316,0.567,0.527,�k,4.9,��
2024/01/19,08:50,0.521,0.788,0.490,1.003,0.712,0.315,0.567,0.528,�k�k��,6.3,��
2024/01/19,09:00,0.521,0.789,0.491,1.005,0.711,0.315,0.567,0.527,�k,6.8,��
2024/01/19,09:10,0.521,0.788,0.491,1.004,0.711,0.316,0.565,0.528,�k,5.6,��
2024/01/19,09:20,0.522,0.791,0.492,1.002,0.712,0.315,0.567,0.527,�k,6.2,��
2024/01/19,09:30,0.518,0.788,0.490,1.004,0.713,0.314,0.567,0.527,�k,7.2,��
2024/01/19,09:40,0.516,0.789,0.490,1.004,0.711,0.317,0.566,0.527,�k,6.8,��
2024/01/19,09:50,0.512,0.789,0.491,1.002,0.712,0.314,0.566,0.528,�k,6.1,��
2024/01/19,10:00,0.513,0.790,0.491,1.004,0.711,0.315,0.565,0.528,�k,7.0,��
2024/01/19,10:10,0.512,0.788,0.492,1.003,0.712,0.315,0.565,0.527,�k�k��,7.4,��
2024/01/19,10:20,0.513,0.788,0.492,1.003,0.710,0.315,0.566,0.528,�k,9.4,��
2024/01/19,10:30,0.512,0.787,0.491,1.002,0.711,0.315,0.564,0.528,�k,8.9,��
2024/01/19,10:40,0.513,0.788,0.491,1.002,0.713,0.315,0.565,0.527,�k,10.2,��
2024/01/19,10:50,0.513,0.786,0.492,1.002,0.713,0.315,0.563,0.528,�k,8.2,��
2024/01/19,11:00,0.513,0.788,0.490,1.001,0.713,0.315,0.565,0.528,�k,9.3,��
2024/01/19,11:10,0.512,0.785,0.492,1.005,0.713,0.317,0.564,0.528,�k,7.6,��
2024/01/19,11:20,0.515,0.786,0.492,1.004,0.711,0.315,0.564,0.529,�k,10.0,��
2024/01/19,11:30,0.515,0.785,0.492,1.004,0.711,0.314,0.565,0.527,�k,8.5,��
2024/01/19,11:40,0.514,0.786,0.494,1.004,0.713,0.314,0.565,0.527,�k,9.5,��
2024/01/19,11:50,0.515,0.788,0.490,1.005,0.712,0.315,0.565,0.528,�k,9.1,��
2024/01/19,12:00,0.510,0.788,0.492,1.003,0.714,0.316,0.563,0.528,�k�k��,9.9,��
2024/01/19,12:10,0.520,0.788,0.492,1.003,0.712,0.315,0.563,0.529,�k�k��,10.8,��
2024/01/19,12:20,0.520,0.786,0.491,1.005,0.711,0.316,0.565,0.528,�k�k��,9.5,��
2024/01/19,12:30,0.521,0.788,0.492,1.003,0.712,0.315,0.563,0.529,�k�k��,10.5,��
2024/01/19,12:40,0.520,0.789,0.493,1.005,0.712,0.315,0.565,0.531,�k�k��,10.5,��
2024/01/19,12:50,0.523,0.786,0.494,1.004,0.712,0.315,0.565,0.529,�k�k��,10.2,��
2024/01/19,13:00,0.522,0.788,0.492,1.003,0.713,0.315,0.564,0.529,�k�k��,10.7,��
2024/01/19,13:10,0.523,0.786,0.493,1.004,0.710,0.315,0.565,0.528,�k�k��,10.8,��
2024/01/19,13:20,0.521,0.786,0.493,1.004,0.712,0.316,0.566,0.528,�k�k��,10.6,��
2024/01/19,13:30,0.523,0.787,0.491,1.004,0.712,0.315,0.566,0.528,�k�k��,12.8,��
2024/01/19,13:40,0.520,0.787,0.492,1.005,0.711,0.315,0.567,0.526,�k�k��,11.6,��
2024/01/19,13:50,0.521,0.785,0.491,1.004,0.709,0.317,0.565,0.527,�k�k��,10.6,��
2024/01/19,14:00,0.522,0.787,0.492,1.004,0.712,0.316,0.566,0.526,�k�k��,11.3,��
2024/01/19,14:10,0.520,0.785,0.492,1.005,0.714,0.316,0.566,0.526,�k,11.3,��
2024/01/19,14:20,0.521,0.787,0.491,1.005,0.714,0.316,0.566,0.526,�k�k��,11.1,��
2024/01/19,14:30,0.522,0.787,0.491,1.002,0.715,0.317,0.567,0.526,�k�k��,11.9,��
2024/01/19,14:40,0.522,0.787,0.493,1.004,0.714,0.317,0.567,0.526,�k�k��,12.4,��
2024/01/19,14:50,0.521,0.787,0.494,1.006,0.713,0.317,0.567,0.527,�k�k��,11.3,��
2024/01/19,15:00,0.519,0.788,0.493,1.003,0.714,0.315,0.566,0.529,�k�k��,11.0,��
2024/01/19,15:10,0.520,0.787,0.493,1.003,0.714,0.316,0.566,0.528,�k,12.2,��
2024/01/19,15:20,0.522,0.791,0.492,1.005,0.714,0.316,0.568,0.528,�k�k��,9.9,��
2024/01/19,15:30,0.521,0.789,0.492,1.004,0.715,0.315,0.566,0.528,�k�k��,9.7,��
2024/01/19,15:40,0.520,0.789,0.493,1.002,0.714,0.316,0.565,0.529,�k,10.2,��
2024/01/19,15:50,0.523,0.790,0.493,1.003,0.713,0.316,0.565,0.528,�k,8.7,��
2024/01/19,16:00,0.521,0.791,0.491,1.003,0.713,0.316,0.565,0.528,�k,9.6,��
2024/01/19,16:10,0.523,0.790,0.492,1.002,0.712,0.315,0.565,0.529,�k,9.4,��
2024/01/19,16:20,0.521,0.790,0.493,1.004,0.713,0.316,0.566,0.529,�k,9.1,��
2024/01/19,16:30,0.523,0.788,0.492,1.002,0.714,0.315,0.566,0.529,�k�k��,6.7,��
2024/01/19,16:40,0.523,0.789,0.492,1.004,0.712,0.317,0.566,0.527,�k,8.5,��
2024/01/19,16:50,0.522,0.791,0.492,1.003,0.712,0.316,0.566,0.527,�k,8.3,��
2024/01/19,17:00,0.521,0.791,0.492,1.006,0.715,0.315,0.565,0.528,�k,7.2,��
2024/01/19,17:10,0.522,0.789,0.492,1.003,0.712,0.314,0.564,0.528,�k,6.6,��
2024/01/19,17:20,0.521,0.790,0.492,1.003,0.713,0.316,0.565,0.528,�k�k��,7.2,��
2024/01/19,17:30,0.520,0.791,0.491,1.004,0.714,0.315,0.566,0.528,�k�k��,7.0,��
2024/01/19,17:40,0.521,0.790,0.491,1.003,0.714,0.316,0.567,0.526,�k�k��,7.8,��
2024/01/19,17:50,0.521,0.790,0.492,1.003,0.714,0.315,0.566,0.528,�k�k��,6.9,��
2024/01/19,18:00,0.521,0.790,0.492,1.005,0.713,0.316,0.567,0.528,�k�k��,7.2,��
2024/01/19,18:10,0.522,0.788,0.491,1.003,0.713,0.314,0.565,0.527,�k�k��,7.9,��
2024/01/19,18:20,0.522,0.790,0.492,1.003,0.714,0.316,0.565,0.527,�k�k��,6.9,��
2024/01/19,18:30,0.520,0.789,0.491,1.004,0.714,0.314,0.565,0.528,�k�k��,4.8,��
2024/01/19,18:40,0.522,0.788,0.491,1.004,0.713,0.315,0.564,0.527,�k�k��,6.0,��
2024/01/19,18:50,0.520,0.791,0.491,1.006,0.713,0.316,0.564,0.527,�k�k��,6.2,��
2024/01/19,19:00,0.521,0.789,0.492,1.007,0.715,0.315,0.565,0.528,�k�k��,6.7,��
2024/01/19,19:10,0.522,0.789,0.492,1.002,0.713,0.314,0.565,0.529,�k�k��,5.9,��
2024/01/19,19:20,0.521,0.788,0.491,1.002,0.715,0.314,0.565,0.528,�k�k��,7.1,��
2024/01/19,19:30,0.522,0.788,0.491,1.003,0.714,0.314,0.565,0.527,�k�k��,7.2,��
2024/01/19,19:40,0.520,0.791,0.490,1.004,0.715,0.314,0.568,0.527,�k�k��,8.8,��
2024/01/19,19:50,0.521,0.788,0.491,1.004,0.712,0.315,0.567,0.528,�k�k��,8.2,��
2024/01/19,20:00,0.520,0.791,0.491,1.003,0.715,0.315,0.565,0.527,�k�k��,7.3,��
2024/01/19,20:10,0.521,0.789,0.490,1.002,0.713,0.314,0.566,0.528,�k�k��,8.0,��
2024/01/19,20:20,0.519,0.791,0.491,1.004,0.714,0.314,0.566,0.526,�k�k��,7.7,��
2024/01/19,20:30,0.521,0.790,0.491,1.003,0.715,0.315,0.566,0.528,�k�k��,7.3,��
2024/01/19,20:40,0.519,0.788,0.492,1.002,0.712,0.316,0.566,0.525,�k��,7.9,��
2024/01/19,20:50,0.520,0.790,0.490,1.003,0.712,0.315,0.565,0.526,�k��,6.4,��
2024/01/19,21:00,0.518,0.789,0.491,1.003,0.714,0.315,0.565,0.529,�k�k��,7.3,��
2024/01/19,21:10,0.521,0.790,0.491,1.005,0.713,0.314,0.566,0.526,�k�k��,7.3,��
2024/01/19,21:20,0.521,0.787,0.491,1.004,0.713,0.315,0.567,0.527,�k�k��,6.9,��
2024/01/19,21:30,0.520,0.788,0.490,1.004,0.713,0.314,0.566,0.527,�k��,6.6,��
2024/01/19,21:40,0.520,0.789,0.490,1.002,0.713,0.317,0.566,0.526,�k��,6.9,��
2024/01/19,21:50,0.521,0.788,0.491,1.004,0.715,0.314,0.564,0.526,�k��,6.2,��
2024/01/19,22:00,0.520,0.789,0.490,1.003,0.712,0.315,0.566,0.526,�k��,4.3,��
2024/01/19,22:10,0.521,0.790,0.491,1.003,0.712,0.315,0.565,0.526,�k��,4.8,��
2024/01/19,22:20,0.520,0.789,0.491,1.002,0.713,0.314,0.564,0.527,�k�k��,5.9,��
2024/01/19,22:30,0.521,0.790,0.491,1.003,0.712,0.314,0.565,0.526,�k�k��,4.8,��
2024/01/19,22:40,0.521,0.787,0.490,1.003,0.713,0.315,0.566,0.527,�k�k��,5.7,��
2024/01/19,22:50,0.520,0.787,0.491,1.003,0.712,0.314,0.564,0.528,�k�k��,6.2,��
2024/01/19,23:00,0.519,0.788,0.491,1.003,0.714,0.314,0.565,0.526,�k�k��,6.4,��
2024/01/19,23:10,0.520,0.789,0.491,1.003,0.712,0.313,0.564,0.527,�k�k��,5.7,��
2024/01/19,23:20,0.521,0.787,0.492,1.002,0.713,0.313,0.565,0.526,�k�k��,3.9,��
2024/01/19,23:30,0.519,0.790,0.492,1.003,0.713,0.315,0.565,0.527,�k�k��,2.8,��
2024/01/19,23:40,0.520,0.787,0.490,1.003,0.711,0.314,0.566,0.526,�k�k��,4.0,��
2024/01/19,23:50,0.519,0.788,0.492,1.002,0.713,0.314,0.564,0.527,�k�k��,4.4,��
